GSAT0222 (GALILEO 26)

Last updated on Wed Oct 15 2025 00:02:33 GMT+0000 (Coordinated Universal Time)

1 43565U 18060B 25286.33188592 -.00000096 00000+0 00000+0 0 9994 2 43565 57.2452 348.4540 0005700 246.0018 113.9948 1.70475764 45006
UTC large
Height (km)
Speed (km/s)
/
Latitude / Longitude
Inclination (degrees)
Orbital Period (minutes)
Azimuth
Elevation
Range (km)
Doppler Factor

Next 0 passes for location: London (51.5072 / 0.1276)

Sorry there are no passes over London.